Temperature
8 8 8 8 7 7 7 6 6 6 6 6 6 5 5 5 5 5 5 5 5 6 6 6 7 8 9 9 10 10 9 9 9 10 12 13 13 13 13 13 13 13 14
8 8 8 8 7 7 7 6 6 6 5 5 5 4 4 4 4 4 4 4 4 4 4 4 5 6 6 7 9 9 9 9 9 9 11 12 12 13 13 13 12 13 13
9 9 9 8 8 7 7 7 6 6 5 5 4 4 4 3 3 3 3 3 3 3 3 3 3 4 4 5 6 7 7 8 8 9 10 11 11 12 12 12 12 12 13
9 9 9 8 8 8 7 7 6 5 5 4 4 4 3 3 3 3 3 3 2 2 2 2 2 3 3 3 4 4 4 5 6 8 10 10 10 10 10 10 11 11 12
9 9 9 8 8 8 7 7 6 5 5 4 4 3 3 3 3 3 3 2 2 2 2 2 2 2 2 2 3 3 3 3 4 7 8 8 9 9 9 9 8 9 10
8 9 9 8 8 8 7 7 6 5 5 4 3 3 3 3 2 2 2 2 2 2 1 1 1 1 2 2 2 2 2 2 3 5 6 6 7 7 7 6 6 6 7
8 8 8 8 8 7 7 7 6 5 4 4 3 3 3 3 2 2 2 2 2 2 2 2 1 1 1 1 1 1 1 1 3 4 4 5 5 6 5 4 4 5 5
8 8 8 8 7 7 7 6 6 5 5 4 4 4 4 4 3 3 3 3 2 2 2 2 2 1 1 1 1 1 1 1 3 3 3 3 4 3 3 3 3 3 4
8 8 8 7 7 7 7 7 6 6 6 5 5 5 5 4 4 4 4 3 3 3 2 2 1 1 1 2 1 1 0 1 2 2 2 2 2 1 1 1 2 2 2
8 8 7 7 7 7 7 6 6 6 6 5 5 5 4 4 4 4 4 3 3 2 2 1 1 0 1 1 1 0 0 1 1 1 1 0 -1 -1 -1 -1 0 1 1
7 7 7 7 7 7 6 6 6 6 5 5 5 4 4 4 3 3 3 2 2 1 1 0 0 0 0 0 0 -0 -0 -0 -1 -1 -1 -2 -3 -3 -3 -2 -1 -1 0
8 7 7 7 6 6 6 6 6 5 5 5 4 4 3 3 3 2 2 1 1 0 -0 -1 -1 -1 -2 -1 -1 -2 -2 -2 -2 -2 -3 -3 -5 -5 -4 -3 -3 -2 -1
8 7 7 6 6 6 6 5 5 5 5 4 4 3 3 2 2 1 1 -0 -1 -1 -2 -2 -3 -3 -4 -4 -4 -4 -4 -4 -4 -4 -4 -5 -6 -6 -6 -5 -4 -3 -3
7 7 7 6 6 6 6 5 5 5 4 4 3 3 2 2 1 0 -1 -1 -2 -3 -4 -4 -5 -5 -5 -5 -5 -5 -5 -5 -5 -5 -5 -6 -6 -7 -6 -6 -5 -5 -4
7 7 6 6 6 6 5 5 5 4 4 3 2 2 1 1 -0 -1 -2 -2 -3 -4 -4 -5 -5 -5 -6 -6 -6 -6 -6 -6 -6 -6 -6 -6 -7 -7 -7 -7 -7 -6 -5
7 7 7 6 6 6 5 5 4 4 3 3 2 1 0 -0 -1 -2 -2 -3 -3 -4 -4 -5 -6 -6 -6 -7 -7 -7 -7 -6 -6 -7 -7 -7 -7 -8 -8 -8 -8 -7 -6
8 7 7 6 6 6 5 4 4 4 3 2 1 1 -0 -1 -1 -2 -2 -3 -3 -4 -5 -5 -6 -6 -7 -7 -7 -7 -7 -7 -7 -7 -7 -8 -8 -8 -9 -9 -9 -8 -7
8 7 7 7 6 6 5 4 4 3 3 2 1 0 -0 -1 -1 -2 -2 -3 -4 -4 -5 -6 -6 -7 -7 -8 -8 -8 -8 -8 -8 -8 -8 -8 -8 -9 -9 -9 -9 -9 -8
8 7 7 7 6 5 5 4 4 3 2 2 1 0 -0 -1 -2 -2 -2 -3 -4 -4 -5 -6 -7 -8 -8 -8 -9 -9 -9 -8 -8 -8 -8 -8 -9 -9 -9 -10 -10 -10 -9
8 7 7 7 6 5 5 4 4 3 2 1 1 0 -0 -1 -2 -2 -3 -3 -4 -5 -6 -7 -8 -8 -9 -9 -10 -10 -9 -8 -8 -8 -9 -9 -9 -9 -9 -10 -10 -10 -10
8 8 7 7 6 6 5 4 4 3 2 1 1 0 -0 -1 -2 -2 -3 -4 -5 -5 -7 -8 -8 -9 -9 -10 -10 -10 -10 -9 -9 -9 -9 -9 -9 -9 -10 -10 -10 -10 -10
9 8 8 7 7 6 5 4 4 3 2 2 1 0 -1 -1 -2 -3 -3 -4 -5 -6 -7 -8 -9 -9 -10 -10 -11 -11 -11 -11 -10 -9 -9 -10 -10 -10 -10 -10 -10 -10 -10
10 9 9 8 7 6 5 4 3 3 2 2 1 0 -1 -1 -2 -3 -4 -4 -5 -7 -8 -9 -9 -10 -10 -11 -11 -11 -12 -11 -11 -11 -10 -10 -10 -10 -10 -10 -10 -10 -10
12 11 9 8 7 6 5 4 3 3 2 1 1 0 -1 -1 -2 -3 -4 -5 -6 -7 -8 -9 -9 -10 -11 -11 -11 -11 -11 -12 -12 -12 -11 -11 -11 -11 -10 -10 -10 -10 -9
13 11 10 9 7 6 5 4 3 3 2 1 1 -0 -1 -2 -2 -3 -4 -5 -6 -7 -8 -9 -10 -10 -11 -11 -11 -11 -11 -11 -12 -12 -12 -12 -11 -11 -11 -10 -10 -10 -10
13 11 10 9 7 6 5 4 3 3 2 1 1 -0 -1 -2 -3 -3 -4 -5 -6 -7 -8 -9 -10 -10 -11 -11 -11 -11 -11 -11 -12 -12 -13 -13 -12 -11 -11 -11 -10 -10 -10
Wind_Speed
1 6 6 7 8 10 11 13 14 15 16 17 18 19 20 20 21 21 22 23 24 24 25 26 27 28 28 29 29 29 28 28 27 27 27 28 30 29 28 28 27 23 28
8 8 5 7 8 9 11 12 13 14 15 16 17 18 18 18 19 20 21 22 23 23 24 25 25 26 27 28 28 29 29 28 28 27 27 26 28 28 28 27 26 23 27
13 9 4 7 8 9 10 11 12 13 14 15 16 17 17 18 18 19 20 21 22 22 23 24 24 25 26 26 27 28 28 29 28 27 26 24 25 27 27 27 25 25 25
13 9 5 8 8 9 10 11 12 13 13 14 15 16 17 18 18 19 20 21 21 22 23 23 24 24 25 26 26 27 27 28 28 28 24 23 24 25 27 26 25 24 25
13 9 5 8 8 9 9 10 10 12 12 13 15 16 17 18 18 19 20 21 21 22 23 23 23 24 25 25 26 26 27 28 27 26 25 25 23 25 27 26 25 24 24
13 9 6 8 8 8 8 8 9 10 11 12 14 15 17 17 18 19 19 20 21 22 23 23 24 24 25 25 26 27 27 28 25 25 26 25 24 27 28 27 26 25 24
13 9 6 8 6 6 6 7 7 9 11 12 14 15 16 17 17 18 19 20 21 22 23 24 24 25 25 25 26 26 27 27 24 25 25 24 27 30 30 29 28 26 25
15 10 6 7 5 5 5 5 6 8 10 12 13 15 16 17 17 18 20 21 22 23 24 24 25 25 25 25 26 26 26 25 24 24 24 24 27 29 30 30 29 27 26
15 12 9 8 6 4 4 4 6 7 9 11 12 14 15 17 18 19 21 22 23 23 24 24 25 25 25 25 26 26 26 25 25 22 22 22 26 30 31 31 31 30 28
14 14 12 9 6 4 3 4 5 6 8 10 11 13 14 17 18 20 22 23 23 23 23 23 24 24 25 25 26 26 25 23 23 21 21 22 29 31 31 32 32 32 31
8 11 13 10 7 4 3 4 5 5 7 8 9 11 12 16 18 19 21 21 21 21 21 22 23 24 24 24 25 25 23 20 22 20 20 25 30 31 31 32 32 33 32
10 8 12 12 9 6 3 2 3 4 5 7 7 9 11 14 15 16 18 18 19 19 19 20 22 21 21 20 21 22 19 21 20 20 21 29 30 31 32 33 33 34 34
11 9 12 14 11 8 4 2 1 2 3 4 5 6 8 11 12 14 15 16 17 16 16 17 18 17 18 18 18 19 20 20 19 20 22 28 30 32 33 33 34 34 35
11 10 11 15 13 10 6 4 3 2 1 2 3 3 5 7 8 8 9 11 12 12 13 13 13 16 16 17 17 17 19 20 20 21 22 29 32 32 33 33 34 35 35
13 12 9 16 15 12 8 6 4 3 2 1 0 1 2 2 2 3 5 7 9 10 10 11 13 14 14 14 15 17 18 20 21 21 22 29 32 33 33 34 34 35 35
15 14 10 14 16 13 10 8 6 5 4 3 3 3 3 2 1 2 4 6 9 10 10 11 13 12 11 12 13 16 18 19 19 21 23 26 29 31 33 33 34 34 35
16 14 12 14 16 14 11 9 7 6 5 5 6 6 6 5 4 4 4 6 9 10 11 12 12 10 11 12 11 15 17 17 19 21 23 23 24 28 31 32 33 34 35
15 15 14 14 15 14 12 10 7 6 6 6 7 7 7 6 5 5 5 7 9 10 10 9 7 5 6 6 7 10 14 16 19 21 22 22 23 23 27 32 34 35 35
17 17 15 11 12 13 13 11 8 6 6 6 7 8 9 8 7 6 7 8 9 9 8 9 6 4 7 8 8 7 8 12 16 20 20 22 22 23 24 28 32 33 34
17 17 16 13 12 13 11 7 5 4 5 6 7 9 10 9 8 7 7 8 8 7 5 5 6 6 6 7 10 10 9 11 13 12 16 19 21 23 25 25 26 27 31
16 16 17 14 12 9 5 4 3 3 3 4 8 10 10 9 8 8 7 8 7 5 5 6 5 6 5 5 6 10 10 9 9 8 11 13 17 21 22 23 23 22 23
20 19 18 17 15 12 7 4 3 4 3 5 7 7 9 9 8 7 7 7 7 5 5 6 5 4 5 5 5 10 9 10 7 12 9 10 11 15 17 21 22 23 22
21 22 20 18 16 13 9 5 3 3 1 2 3 4 8 8 8 8 8 8 8 5 5 6 6 6 6 5 4 5 8 10 14 10 12 11 9 10 11 16 20 21 22
22 19 18 17 15 13 11 9 8 6 6 6 4 4 7 8 8 8 9 9 8 7 5 6 6 6 6 8 6 5 7 8 10 12 11 9 11 12 12 13 15 19 21
18 18 16 16 15 14 13 12 9 7 6 4 4 5 5 7 8 9 10 9 9 8 8 8 7 7 6 7 7 6 7 7 7 8 15 17 15 10 10 12 12 14 18
13 15 15 17 16 15 14 12 11 10 9 7 6 6 5 4 6 9 10 10 11 10 10 9 8 8 8 8 8 7 8 7 9 8 12 16 17 15 13 12 11 11 15
Wind_Direction
98 69 62 60 60 56 52 48 44 39 35 32 29 26 25 24 22 22 21 18 16 14 12 10 8 6 5 4 3 2 1 1 1 1 2 358 353 349 349 350 350 349 347
119 90 77 78 69 63 56 50 45 40 36 32 29 26 24 24 23 22 20 18 15 13 11 9 7 5 4 2 360 358 357 357 358 359 1 356 350 345 345 345 345 344 345
111 102 82 90 78 69 61 53 46 40 36 33 29 25 23 23 23 22 20 17 15 13 11 9 7 5 4 1 358 356 355 355 355 358 358 353 347 341 340 341 340 341 343
117 115 107 100 86 74 64 54 46 40 36 33 29 25 24 23 22 22 19 16 14 13 11 9 7 6 4 1 358 356 355 354 354 357 355 349 345 338 337 337 336 337 338
122 122 119 107 93 78 65 56 47 40 35 33 29 26 24 23 21 21 18 15 14 13 11 9 8 7 4 2 360 358 357 355 358 360 354 347 344 336 334 334 332 332 332
131 131 127 114 101 86 69 57 50 41 35 34 31 28 26 23 21 22 18 15 14 13 11 9 8 7 6 3 1 359 356 354 5 1 352 345 341 332 332 331 329 327 326
147 145 139 120 112 100 80 59 51 43 37 36 33 30 28 24 21 23 18 15 14 12 11 9 7 6 5 3 0 358 355 354 4 355 346 341 335 329 328 327 325 322 320
154 151 123 116 104 96 85 65 51 47 40 37 33 31 29 24 21 22 17 15 13 11 9 7 5 4 2 0 358 356 355 357 358 348 340 339 330 327 326 324 322 318 315
150 143 125 111 99 82 61 56 51 47 41 36 31 30 28 23 21 21 16 13 11 9 7 4 3 2 0 358 356 354 355 357 353 343 340 335 327 327 324 322 319 316 313
148 144 139 130 116 96 68 50 52 46 39 34 27 26 27 24 22 20 14 11 8 5 3 1 360 359 358 356 354 353 355 353 344 342 339 330 328 325 321 318 315 313 310
157 155 151 142 133 120 106 67 54 47 38 37 29 26 30 30 26 19 12 8 5 2 0 358 356 357 356 353 351 351 352 345 343 340 334 327 326 322 319 316 313 309 307
174 176 166 156 150 139 125 96 62 66 56 43 36 37 37 33 26 19 11 5 2 359 358 355 353 353 351 346 345 346 343 342 340 334 330 326 324 322 319 315 312 308 305
177 178 177 167 161 156 155 163 101 98 71 43 36 38 36 33 27 20 11 4 360 355 354 349 348 344 339 336 335 335 338 338 332 327 324 323 323 320 317 314 310 306 302
176 182 180 172 167 169 176 198 190 162 115 39 34 40 40 38 27 15 3 353 347 343 338 336 333 330 328 328 328 329 330 327 323 321 319 322 320 318 316 312 309 305 301
181 182 181 176 173 174 181 200 195 197 195 221 199 103 78 68 25 349 336 333 331 329 326 325 325 322 322 323 324 327 321 317 314 313 314 316 317 316 313 310 307 304 300
183 182 179 177 176 174 179 193 206 211 216 218 216 203 185 181 226 279 301 312 318 323 323 322 320 316 315 316 316 318 314 310 309 308 310 311 312 313 312 309 306 303 300
185 181 179 179 176 175 180 193 205 218 221 219 219 210 204 211 228 249 271 293 308 319 322 323 318 320 321 321 315 313 311 307 306 306 307 305 304 308 308 307 305 302 299
183 181 182 179 176 176 180 191 204 216 216 220 220 216 218 225 236 246 262 283 303 311 317 315 310 313 308 307 305 307 307 306 304 304 301 299 299 300 301 304 302 300 298
185 183 183 176 174 177 181 187 193 202 209 219 224 227 230 234 242 251 264 282 297 302 308 315 327 306 307 309 308 302 303 303 299 299 296 295 294 295 296 299 300 300 297
186 184 182 177 176 173 171 170 174 191 211 228 238 240 238 236 247 256 269 282 293 294 295 296 298 298 293 297 310 311 299 296 293 288 288 293 294 295 295 295 294 294 295
185 184 183 180 178 167 159 165 177 203 215 238 250 245 234 237 250 262 273 285 289 279 279 289 294 299 296 295 305 312 303 288 284 286 286 290 292 293 293 294 293 291 290
190 189 187 186 182 180 175 166 167 169 194 225 237 230 230 240 254 263 266 272 279 278 285 291 293 289 294 311 305 316 312 307 302 311 294 292 291 294 296 297 295 291 288
196 193 192 188 184 182 171 151 140 136 180 223 223 227 236 248 261 265 272 273 275 267 270 279 282 278 292 293 268 279 304 307 315 302 303 298 291 293 294 295 296 293 292
201 193 189 185 182 179 170 170 169 182 199 213 211 221 244 256 259 265 271 273 271 266 260 273 290 274 280 294 292 257 260 282 300 307 307 298 296 299 298 301 299 296 293
195 189 186 181 181 178 177 177 178 192 202 210 218 235 245 252 255 264 270 269 264 262 263 267 273 270 264 273 283 284 284 282 269 286 303 308 307 299 299 299 297 295 294
184 183 181 181 183 181 181 181 185 192 199 208 221 233 241 242 252 260 266 262 261 262 263 265 262 262 262 266 273 274 278 279 288 285 293 300 304 304 303 300 296 296 297
Height
1614 1615 1615 1614 1613 1612 1611 1609 1607 1604 1602 1600 1598 1596 1594 1591 1588 1586 1583 1580 1577 1575 1572 1570 1567 1564 1562 1560 1558 1556 1554 1552 1550 1548 1547 1548 1548 1548 1547 1547 1547 1546 1546
1613 1614 1614 1613 1612 1611 1609 1608 1606 1604 1602 1600 1598 1596 1594 1591 1589 1586 1583 1580 1577 1575 1572 1569 1566 1564 1561 1559 1557 1555 1553 1550 1548 1546 1544 1544 1545 1545 1544 1544 1544 1544 1544
1611 1612 1612 1611 1611 1610 1608 1607 1605 1603 1601 1599 1597 1595 1593 1591 1589 1586 1583 1580 1577 1574 1572 1569 1566 1563 1560 1557 1555 1553 1551 1549 1546 1543 1542 1541 1541 1541 1541 1541 1541 1541 1541
1610 1611 1610 1610 1609 1608 1607 1606 1604 1602 1601 1599 1597 1594 1593 1590 1588 1585 1582 1579 1577 1574 1571 1568 1566 1563 1560 1557 1554 1551 1549 1546 1543 1541 1539 1538 1537 1537 1538 1537 1537 1537 1537
1609 1609 1609 1609 1608 1607 1606 1605 1603 1601 1600 1598 1596 1593 1592 1589 1587 1584 1581 1578 1576 1573 1570 1567 1565 1562 1558 1556 1553 1550 1547 1544 1540 1537 1537 1535 1534 1534 1534 1533 1533 1532 1532
1607 1608 1608 1607 1607 1606 1605 1603 1602 1600 1598 1597 1594 1592 1590 1587 1585 1582 1579 1577 1574 1572 1569 1566 1563 1560 1557 1554 1551 1548 1545 1541 1536 1534 1533 1532 1531 1530 1530 1529 1529 1528 1527
1606 1606 1606 1606 1606 1605 1603 1602 1600 1599 1597 1595 1592 1590 1587 1584 1582 1580 1577 1575 1572 1570 1567 1564 1561 1558 1555 1551 1548 1545 1542 1538 1533 1531 1529 1528 1528 1527 1526 1525 1524 1524 1523
1604 1605 1604 1604 1604 1603 1602 1601 1599 1597 1595 1592 1590 1587 1585 1582 1580 1578 1575 1573 1571 1568 1565 1562 1559 1556 1553 1549 1546 1542 1538 1534 1530 1528 1525 1524 1523 1523 1522 1521 1520 1519 1518
1602 1603 1603 1603 1602 1602 1601 1599 1597 1595 1593 1591 1588 1586 1583 1581 1579 1576 1574 1572 1569 1566 1563 1561 1557 1554 1550 1546 1543 1539 1535 1531 1527 1524 1521 1519 1519 1518 1517 1516 1514 1514 1513
1599 1600 1601 1601 1601 1600 1599 1597 1596 1594 1592 1589 1587 1584 1582 1580 1577 1575 1573 1570 1568 1565 1561 1558 1554 1551 1547 1543 1540 1536 1531 1527 1524 1520 1517 1515 1514 1512 1511 1510 1508 1507 1506
1595 1597 1598 1598 1598 1598 1597 1595 1594 1592 1590 1587 1585 1583 1580 1578 1576 1573 1571 1568 1565 1561 1558 1554 1551 1547 1543 1540 1536 1532 1528 1524 1520 1516 1513 1511 1509 1507 1506 1504 1502 1501 1499
1591 1593 1595 1596 1596 1595 1594 1593 1591 1590 1587 1585 1583 1580 1578 1575 1573 1570 1567 1564 1561 1557 1554 1550 1546 1542 1539 1535 1532 1528 1524 1520 1517 1513 1509 1506 1504 1502 1500 1498 1496 1494 1492
1588 1590 1592 1593 1593 1593 1592 1590 1589 1587 1584 1582 1580 1577 1575 1573 1570 1567 1564 1560 1556 1552 1548 1544 1541 1537 1533 1530 1527 1523 1520 1516 1513 1509 1505 1502 1499 1496 1494 1491 1489 1486 1485
1583 1585 1588 1590 1590 1590 1589 1587 1586 1584 1581 1579 1576 1574 1572 1569 1566 1562 1559 1555 1551 1546 1542 1539 1535 1531 1528 1525 1522 1519 1516 1513 1509 1505 1501 1497 1494 1490 1487 1484 1481 1479 1477
1579 1581 1583 1585 1586 1586 1585 1584 1582 1580 1578 1575 1572 1570 1567 1564 1561 1558 1554 1550 1546 1541 1537 1534 1530 1527 1523 1520 1517 1514 1511 1508 1505 1501 1496 1492 1488 1484 1481 1477 1474 1471 1469
1575 1577 1579 1581 1582 1582 1581 1580 1578 1576 1574 1571 1568 1565 1562 1560 1557 1553 1550 1546 1542 1538 1534 1530 1526 1522 1519 1516 1513 1510 1507 1504 1500 1496 1492 1487 1482 1478 1474 1470 1467 1464 1461
1572 1574 1575 1576 1577 1577 1577 1575 1574 1572 1570 1567 1564 1561 1558 1556 1553 1549 1546 1542 1538 1534 1530 1526 1522 1519 1515 1512 1508 1505 1502 1499 1495 1491 1487 1482 1477 1472 1467 1463 1459 1456 1453
1568 1569 1570 1571 1572 1572 1572 1571 1569 1567 1565 1562 1560 1557 1554 1552 1549 1545 1542 1538 1534 1530 1526 1522 1518 1514 1511 1507 1503 1500 1497 1494 1490 1486 1481 1477 1472 1466 1461 1456 1452 1448 1445
1563 1564 1565 1565 1566 1567 1567 1566 1565 1563 1560 1558 1556 1553 1550 1548 1545 1541 1538 1534 1530 1526 1522 1518 1514 1511 1506 1503 1499 1495 1492 1489 1485 1481 1476 1471 1466 1461 1455 1449 1445 1440 1436
1558 1559 1559 1559 1560 1561 1562 1561 1560 1558 1556 1553 1551 1549 1546 1544 1541 1537 1534 1530 1526 1522 1518 1515 1511 1507 1504 1499 1495 1491 1487 1483 1479 1475 1470 1466 1461 1455 1450 1444 1437 1432 1428
1552 1552 1552 1553 1554 1555 1556 1556 1555 1553 1551 1549 1546 1544 1542 1539 1536 1533 1530 1526 1522 1518 1514 1510 1506 1503 1499 1496 1491 1485 1481 1478 1474 1469 1465 1460 1455 1450 1444 1438 1432 1426 1421
1544 1544 1545 1546 1547 1549 1550 1551 1550 1548 1546 1544 1542 1540 1537 1535 1532 1529 1525 1521 1518 1514 1510 1507 1503 1498 1495 1493 1489 1482 1476 1472 1468 1464 1459 1453 1449 1444 1438 1432 1426 1420 1416
1536 1536 1537 1539 1540 1542 1544 1545 1544 1543 1541 1539 1537 1535 1533 1530 1527 1524 1520 1517 1513 1510 1506 1503 1499 1495 1491 1488 1487 1483 1476 1467 1462 1456 1452 1447 1443 1438 1432 1427 1421 1415 1410
1527 1529 1530 1532 1534 1536 1537 1538 1538 1537 1536 1534 1532 1530 1528 1526 1523 1519 1516 1512 1509 1505 1502 1498 1495 1491 1487 1483 1481 1478 1475 1469 1462 1451 1445 1440 1436 1432 1427 1421 1416 1410 1404
1522 1522 1524 1525 1527 1529 1530 1531 1531 1531 1530 1528 1526 1525 1523 1521 1518 1515 1511 1508 1504 1500 1497 1493 1490 1486 1483 1479 1475 1471 1468 1464 1459 1453 1441 1433 1427 1423 1420 1416 1410 1405 1399
1515 1515 1516 1518 1519 1521 1523 1524 1524 1524 1524 1522 1521 1519 1518 1515 1513 1509 1506 1502 1499 1495 1492 1488 1484 1480 1477 1473 1470 1466 1462 1457 1452 1447 1439 1430 1422 1415 1412 1409 1405 1400 1395